Green Bay, WI

11:32 PM CST on February 12, 2016 (GMT -0600)
Austin Straubel International

Weather History for KGRB - February, 2013

Change the Weather History Date:

Wednesday, February 27, 2013

  Actual Average Record
Temperature  
Mean Temperature 32 °F 24 °F  
Max Temperature 34 °F 32 °F 59 °F (1896)
Min Temperature 29 °F 16 °F -15 °F (2014)
Degree Days  
Heating Degree Days 33 41  
Month to date heating degree days 1242 1211  
Since 1 July heating degree days 5407 5800  
Cooling Degree Days 0 0  
Month to date cooling degree days 0 0  
Year to date cooling degree days 0 0  
Moisture  
Dew Point 27 °F    
Average Humidity 84    
Maximum Humidity 92    
Minimum Humidity 75    
Precipitation  
Precipitation 0.23 in 0.05 in 0.69 in (1981)
Month to date precipitation 2.30 1.06  
Year to date precipitation 4.66 2.19  
Snow  
Snow 2.40 in 0.30 in 5.80 in (1948)
Month to date snowfall 18.9 9.5  
Since 1 July snowfall 58.0 39.8  
Snow Depth 9.00 in    
Sea Level Pressure  
Sea Level Pressure 29.71 in    
Wind  
Wind Speed 20 mph (NNE)    
Max Wind Speed 33 mph    
Max Gust Speed 43 mph    
Visibility 3 miles    
Events Snow    
T = Trace of Precipitation, MM = Missing Value Source: NWS Daily Summary

Daily Weather History Graph

Daily Weather History Graph

Search for Another Location

Airport or City:

Trip Planner

Search our weather history database for the weather conditions in past years. The results will help you decide how hot, cold, wet, or windy it might be!

Date:

Astronomy

Feb. 27, 2013 Rise Set
Actual Time 6:32 AM CST 5:38 PM CST
Civil Twilight 6:03 AM CST 6:07 PM CST
Nautical Twilight 5:29 AM CST 6:41 PM CST
Astronomical Twilight 4:56 AM CST 7:14 PM CST
Moon 8:07 PM CST (2/27) 7:01 AM CST (2/27)
Length of Visible Light 12h 03m
Length of Day
11h 05m
Waning Gibbous, 96% of the Moon is Illuminated
Feb 27
Waning Gibbous
Mar 4
Last Quarter
Mar 11
New
Mar 19
First Quarter
Mar 27
Full

Hourly Weather History & Observations

Time (CST) Temp. Windchill Dew Point Humidity Pressure Visibility Wind Dir Wind Speed Gust Speed Precip Events Conditions
12:53 AM 30.0 °F 15.4 °F 24.1 °F 79% 29.73 in 8.0 mi NNE 27.6 mph 36.8 mph 0.00 in   Overcast
1:32 AM 30.0 °F 15.2 °F 24.1 °F 79% 29.70 in 2.5 mi NNE 28.8 mph 38.0 mph 0.00 in Snow Light Snow
1:53 AM 28.9 °F 14.5 °F 25.0 °F 85% 29.72 in 1.5 mi NNE 25.3 mph 35.7 mph 0.00 in Snow Light Snow
2:30 AM 28.9 °F 14.8 °F 26.1 °F 89% 29.68 in 0.8 mi NNE 24.2 mph 33.4 mph 0.00 in Snow Light Snow
2:45 AM 28.9 °F 14.8 °F 26.1 °F 89% 29.68 in 1.0 mi NNE 24.2 mph 34.5 mph 0.01 in Snow Light Snow
2:53 AM 28.9 °F 15.8 °F 26.1 °F 89% 29.71 in 1.0 mi NNE 20.7 mph - 0.01 in Snow Light Snow
3:23 AM 28.9 °F 15.4 °F 26.1 °F 89% 29.68 in 0.8 mi NNE 21.9 mph 31.1 mph 0.01 in Snow Light Snow
3:32 AM 28.9 °F 15.4 °F 26.1 °F 89% 29.68 in 1.0 mi NNE 21.9 mph 31.1 mph 0.02 in Snow Light Snow
3:41 AM 28.9 °F 15.8 °F 26.1 °F 89% 29.68 in 0.8 mi North 20.7 mph - 0.02 in Snow Light Snow
3:53 AM 28.9 °F 16.5 °F 26.1 °F 89% 29.70 in 0.8 mi North 18.4 mph - 0.03 in Snow Light Snow
4:00 AM 28.9 °F 16.1 °F 26.1 °F 89% 29.68 in 0.8 mi North 19.6 mph - 0.01 in Snow Light Snow
4:32 AM 28.9 °F 16.1 °F 26.1 °F 89% 29.68 in 1.0 mi North 19.6 mph - 0.03 in Snow Light Snow
4:53 AM 28.9 °F 16.1 °F 26.1 °F 89% 29.70 in 1.0 mi North 19.6 mph - 0.04 in Snow Light Snow
5:10 AM 28.9 °F 15.4 °F 26.1 °F 89% 29.67 in 0.8 mi North 21.9 mph 27.6 mph 0.00 in Snow Light Snow
5:32 AM 28.9 °F 15.8 °F 26.1 °F 89% 29.67 in 1.0 mi North 20.7 mph - 0.01 in Snow Light Snow
5:46 AM 28.9 °F 14.8 °F 26.1 °F 89% 29.67 in 1.2 mi North 24.2 mph - 0.02 in Snow Light Snow
5:53 AM 28.9 °F 15.8 °F 26.1 °F 89% 29.70 in 1.0 mi North 20.7 mph - 0.02 in Snow Light Snow
6:11 AM 28.9 °F 15.8 °F 26.1 °F 89% 29.67 in 1.2 mi North 20.7 mph 28.8 mph 0.00 in Snow Light Snow
6:25 AM 28.9 °F 14.8 °F 26.1 °F 89% 29.66 in 1.8 mi North 24.2 mph 33.4 mph 0.00 in Snow Light Snow
6:33 AM 28.9 °F 15.8 °F 26.1 °F 89% 29.66 in 2.0 mi North 20.7 mph 31.1 mph 0.00 in Snow Light Snow
6:42 AM 28.9 °F 14.8 °F 26.1 °F 89% 29.66 in 1.8 mi North 24.2 mph - 0.00 in Snow Light Snow
6:49 AM 28.4 °F 13.8 °F 26.6 °F 93% 29.66 in 2.5 mi NNE 25.3 mph 29.9 mph 0.00 in Snow Light Snow
6:53 AM 28.9 °F 15.8 °F 26.1 °F 89% 29.69 in 3.0 mi NNE 20.7 mph 31.1 mph 0.00 in Snow Light Snow
7:00 AM 28.9 °F 14.5 °F 26.1 °F 89% 29.67 in 1.8 mi NNE 25.3 mph 32.2 mph 0.00 in Snow Light Snow
7:41 AM 30.0 °F 16.9 °F 26.1 °F 85% 29.67 in 2.5 mi NNE 21.9 mph - 0.00 in Snow Light Snow
7:49 AM 30.2 °F 16.8 °F 26.6 °F 86% 29.67 in 2.5 mi NNE 23.0 mph - N/A Snow Light Snow
7:53 AM 30.0 °F 16.9 °F 26.1 °F 85% 29.70 in 2.5 mi NNE 21.9 mph - 0.00 in Snow Light Snow
8:00 AM 30.0 °F 16.3 °F 26.1 °F 85% 29.67 in 3.0 mi NNE 24.2 mph 33.4 mph 0.00 in Snow Light Snow
8:53 AM 30.9 °F 18.4 °F 26.1 °F 82% 29.70 in 6.0 mi NNE 20.7 mph 35.7 mph 0.00 in   Overcast
9:02 AM 30.9 °F 17.8 °F 26.1 °F 82% 29.67 in 6.0 mi NNE 23.0 mph 32.2 mph 0.00 in Snow Light Snow
9:53 AM 30.9 °F 16.7 °F 27.0 °F 85% 29.70 in 5.0 mi NNE 27.6 mph 36.8 mph 0.00 in Snow Light Snow
10:19 AM 32.0 °F 19.2 °F 27.0 °F 82% 29.67 in 4.0 mi NNE 23.0 mph 32.2 mph 0.00 in Snow Light Snow
10:37 AM 32.0 °F 19.2 °F 27.0 °F 82% 29.67 in 5.0 mi NNE 23.0 mph 29.9 mph 0.00 in Snow Light Snow
10:53 AM 32.0 °F 18.9 °F 27.0 °F 82% 29.70 in 5.0 mi NNE 24.2 mph 34.5 mph 0.00 in Snow Light Snow
11:04 AM 32.0 °F 18.6 °F 27.0 °F 82% 29.67 in 5.0 mi NNE 25.3 mph 35.7 mph 0.00 in   Overcast
11:12 AM 32.0 °F 18.9 °F 27.0 °F 82% 29.67 in 5.0 mi NNE 24.2 mph 36.8 mph 0.00 in   Overcast
11:36 AM 32.0 °F 18.6 °F 27.0 °F 82% 29.68 in 6.0 mi NNE 25.3 mph 35.7 mph 0.00 in Snow Blowing Snow
11:53 AM 32.0 °F 18.9 °F 27.0 °F 82% 29.70 in 6.0 mi NNE 24.2 mph 34.5 mph 0.00 in Snow Blowing Snow
12:25 PM 33.1 °F 19.6 °F 27.0 °F 78% 29.67 in 1.8 mi NNE 27.6 mph 35.7 mph 0.00 in Snow Light Snow
12:38 PM 33.1 °F 20.6 °F 28.0 °F 82% 29.67 in 2.0 mi NNE 23.0 mph 34.5 mph 0.00 in Snow Light Snow
12:47 PM 33.8 °F 21.3 °F 28.4 °F 81% 29.67 in 3.0 mi NNE 24.2 mph 31.1 mph 0.00 in Snow Light Snow
12:48 PM 33.8 °F 21.3 °F 28.4 °F 81% 29.67 in 3.0 mi NNE 24.2 mph 31.1 mph 0.00 in Snow Light Snow
12:53 PM 33.1 °F 19.6 °F 28.0 °F 82% 29.70 in 3.0 mi NNE 27.6 mph 38.0 mph 0.00 in Snow Light Snow
1:53 PM 33.1 °F 21.2 °F 27.0 °F 78% 29.70 in 6.0 mi NNE 20.7 mph 31.1 mph 0.01 in   Overcast
2:53 PM 33.1 °F 21.2 °F 28.0 °F 82% 29.71 in 8.0 mi NNE 20.7 mph 28.8 mph 0.00 in   Overcast
3:53 PM 33.1 °F 21.5 °F 28.9 °F 85% 29.72 in 3.0 mi North 19.6 mph - 0.00 in Snow Light Snow
4:26 PM 33.1 °F 22.6 °F 28.9 °F 85% 29.70 in 3.0 mi North 16.1 mph - 0.00 in Snow Light Snow
4:28 PM 33.1 °F 22.6 °F 28.9 °F 85% 29.70 in 2.5 mi North 16.1 mph - 0.00 in Snow Light Snow
4:49 PM 33.8 °F 24.8 °F 28.4 °F 81% 29.71 in 2.5 mi North 12.7 mph - 0.00 in Snow Light Snow
4:53 PM 33.1 °F 23.0 °F 28.9 °F 85% 29.74 in 2.5 mi North 15.0 mph - 0.00 in Snow Light Snow
5:00 PM 33.1 °F 22.2 °F 28.9 °F 85% 29.71 in 2.5 mi North 17.3 mph - 0.00 in Snow Light Snow
5:23 PM 33.1 °F 23.0 °F 28.9 °F 85% 29.72 in 1.8 mi North 15.0 mph - 0.00 in Snow Light Snow
5:26 PM 33.1 °F 22.6 °F 28.9 °F 85% 29.72 in 2.0 mi North 16.1 mph - 0.00 in Snow Light Snow
5:37 PM 33.1 °F 23.9 °F 28.9 °F 85% 29.72 in 1.8 mi North 12.7 mph - 0.00 in Snow Light Snow
5:53 PM 32.0 °F 21.2 °F 28.9 °F 88% 29.75 in 2.0 mi North 16.1 mph - 0.00 in Snow Light Snow
5:55 PM 32.0 °F 21.2 °F 28.9 °F 88% 29.73 in 1.8 mi North 16.1 mph - 0.00 in Snow Light Snow
6:11 PM 32.0 °F 21.2 °F 28.9 °F 88% 29.73 in 2.0 mi North 16.1 mph - 0.01 in Snow Light Snow
6:24 PM 32.0 °F 21.2 °F 28.9 °F 88% 29.74 in 2.5 mi North 16.1 mph - 0.01 in Snow Light Snow
6:26 PM 32.0 °F 21.2 °F 28.9 °F 88% 29.74 in 3.0 mi North 16.1 mph - 0.01 in Snow Light Snow
6:28 PM 32.0 °F 21.6 °F 28.9 °F 88% 29.74 in 3.0 mi North 15.0 mph - 0.01 in Snow Light Snow
6:35 PM 32.0 °F 20.5 °F 28.9 °F 88% 29.74 in 4.0 mi North 18.4 mph - 0.01 in Snow Light Snow
6:53 PM 32.0 °F 20.1 °F 28.9 °F 88% 29.77 in 5.0 mi North 19.6 mph - 0.01 in Snow Light Snow
7:13 PM 33.1 °F 20.6 °F 28.9 °F 85% 29.75 in 5.0 mi North 23.0 mph - 0.00 in Snow Light Snow
7:25 PM 33.1 °F 21.2 °F 28.9 °F 85% 29.75 in 6.0 mi North 20.7 mph 27.6 mph 0.00 in   Overcast
7:53 PM 33.1 °F 22.6 °F 28.9 °F 85% 29.78 in 8.0 mi North 16.1 mph - 0.00 in   Overcast
8:53 PM 33.1 °F 22.2 °F 28.9 °F 85% 29.79 in 10.0 mi North 17.3 mph - 0.00 in   Overcast
9:53 PM 33.1 °F 22.2 °F 28.9 °F 85% 29.80 in 5.0 mi North 17.3 mph - 0.00 in Snow Light Snow
10:48 PM 32.0 °F 20.8 °F 30.2 °F 93% 29.78 in 2.5 mi North 17.3 mph - 0.00 in Snow Light Snow
10:53 PM 33.1 °F 22.6 °F 28.9 °F 85% 29.81 in 3.0 mi North 16.1 mph - 0.00 in Snow Light Snow